Flag for Hungary Weather past 2 weeks in Budapest, Hungary

Now
86 °F

Sunny.


Feels Like: 85 °F
Forecast: 69 / 94 °F
Wind: 10 mph from Southwest

Location: Ferenc Liszt International Airport

Current Time: Jul 6, 2015 at 11:14:57 AM

Latest Report: Jul 6, 2015 at 10:30 AM


Visibility: 10 mi

Pressure: 30.07 "Hg

Humidity: 35%

Dew point: 55 °F

Location of BudapestLocation

Historic Weather in Budapest — Graph

°F

Budapest temperature yesterday

Maximum temperature yesterday: 95 °F (at 4:30 PM)
Minimum temperature yesterday: 59 °F (at 5:30 AM)
Average temperature yesterday: 80 °F

Past Weeks' High & Low Weather Summary

 TemperatureHumidityPressure
High95 °F (Jul 5, 4:30 PM)100% (Jun 24, 5:00 AM)30.36 "Hg (Jun 24, 5:00 AM)
Low45 °F (Jun 22, 4:00 AM)22% (Jul 5, 4:30 PM)29.83 "Hg (Jun 23, 4:30 AM)
Average69 °F59%30.10 "Hg
* Reported Jun 21 10:00 AM — Jul 6 10:00 AM, Budapest, Weather by CustomWeather, © 2015

Note: Actual official high and low records may vary slightly from our data, if they occured in-between our weather recording intervals... More about our weather records

Advertising

Budapest weather history for previous 24 hours

 ConditionsComfort  
Time TempWeatherWind HumidityBarometerVisibility
10:00 AM
Mon, Jul 6
84 °FPassing clouds.8 mph40%30.04 "HgN/A
9:30 AM82 °FPassing clouds.6 mph42%30.04 "HgN/A
9:00 AM82 °FSunny.3 mph45%30.04 "Hg10 mi
8:30 AM79 °FSunny.3 mph48%30.04 "Hg10 mi
8:00 AM77 °FSunny.3 mph54%30.04 "Hg10 mi
7:30 AM73 °FSunny.2 mph61%30.04 "Hg10 mi
7:00 AM70 °FSunny.2 mph69%30.04 "Hg10 mi
6:30 AM68 °FSunny.No wind69%30.04 "Hg10 mi
6:00 AM64 °FSunny.1 mph78%30.04 "Hg10 mi
5:30 AM61 °FClear.2 mph88%30.04 "Hg10 mi
5:00 AM61 °FClear.2 mph83%30.04 "Hg10 mi
4:30 AM61 °FClear.2 mph83%30.04 "Hg10 mi
4:00 AM63 °FClear.1 mph77%30.04 "Hg10 mi
3:30 AM63 °FClear.2 mph83%30.04 "Hg10 mi
3:00 AM63 °FClear.2 mph83%30.04 "Hg10 mi
2:30 AM64 °FClear.2 mph78%30.04 "Hg10 mi
2:00 AM64 °FClear.No wind73%30.04 "Hg10 mi
1:30 AM66 °FClear.2 mph73%30.04 "Hg10 mi
1:00 AM68 °FClear.2 mph69%30.04 "Hg10 mi
12:30 AM70 °FClear.3 mph64%30.04 "Hg10 mi
12:00 AM70 °FClear.No wind64%30.04 "Hg10 mi
11:00 PM
Sun, Jul 5
77 °FClear.1 mph47%30.01 "Hg10 mi
10:30 PM77 °FClear.7 mph47%30.01 "Hg10 mi
10:00 PM79 °FClear.7 mph45%30.01 "Hg10 mi
9:30 PM81 °FSunny.7 mph39%30.01 "Hg10 mi
9:00 PM82 °FSunny.7 mph37%30.01 "Hg10 mi
8:30 PM86 °FSunny.8 mph33%30.01 "Hg10 mi
8:00 PM88 °FSunny.9 mph31%30.01 "Hg10 mi
7:30 PM90 °FSunny.10 mph29%30.01 "Hg10 mi
7:00 PM91 °FPassing clouds.9 mph26%30.01 "HgN/A
6:30 PM91 °FPassing clouds.7 mph24%30.01 "HgN/A
6:00 PM93 °FPassing clouds.7 mph23%30.01 "HgN/A
5:30 PM93 °FSunny.5 mph23%30.04 "Hg10 mi
5:00 PM93 °FSunny.12 mph23%30.04 "Hg10 mi
4:30 PM95 °FPassing clouds.12 mph22%30.04 "HgN/A
4:00 PM91 °FPassing clouds.10 mph24%30.04 "HgN/A
3:30 PM91 °FPassing clouds.8 mph24%30.04 "HgN/A
3:00 PM93 °FPassing clouds.10 mph23%30.04 "HgN/A
2:30 PM93 °FPassing clouds.12 mph24%30.07 "HgN/A
2:00 PM91 °FPassing clouds.10 mph24%30.07 "HgN/A
1:30 PM91 °FPassing clouds.13 mph24%30.07 "HgN/A
1:00 PM91 °FSunny.5 mph26%30.07 "Hg10 mi
12:30 PM91 °FSunny.7 mph26%30.07 "Hg10 mi
12:00 PM91 °FPassing clouds.12 mph24%30.07 "HgN/A
11:30 AM88 °FPassing clouds.6 mph31%30.09 "HgN/A
11:00 AM88 °FPassing clouds.7 mph31%30.09 "HgN/A
Weather by CustomWeather, © 2015

See weather overviewHow to use our weather pages